Temp
48 48 49 49 49 49 49 49 48 48 48 48 48 48 48 48 48 43 36 38 33 27 29 29 30 23 21 21 15 17 19 18 15 12 16 17 14 17 18 25 21 21 20 17 19 16 16 33 32 32 37 35 35 36
48 48 48 48 48 48 47 48 49 49 48 48 48 48 48 48 48 47 34 38 38 30 26 34 35 37 34 31 23 16 20 14 19 14 19 18 15 18 17 12 28 21 24 20 26 27 34 33 34 37 36 36 34 35
47 47 47 48 48 48 48 48 48 48 48 47 47 47 48 48 48 46 37 34 33 29 26 27 26 32 39 36 36 17 17 26 23 25 19 21 16 19 6 18 22 24 27 23 28 31 33 34 36 36 36 36 38 39
46 47 47 47 48 48 48 48 48 48 48 48 48 48 47 47 47 46 35 36 33 28 20 22 32 28 36 38 35 34 31 28 23 20 15 15 13 25 19 23 22 26 26 24 22 31 33 36 35 38 38 38 38 37
46 46 47 47 47 47 48 48 48 48 47 48 47 46 47 46 46 41 35 35 37 29 21 19 24 28 34 33 32 33 31 26 15 13 16 13 22 21 22 21 21 28 27 24 24 31 31 33 36 37 35 36 36 37
46 46 46 46 47 47 47 48 47 47 47 47 46 45 46 46 44 34 24 34 37 33 26 19 24 19 21 27 29 28 29 25 25 22 17 19 27 22 14 12 28 32 34 34 30 34 34 35 36 36 36 36 36 35
45 46 46 46 47 47 47 47 47 47 47 46 46 46 46 43 33 24 22 32 39 36 25 14 11 19 17 18 16 18 17 24 25 23 19 19 21 25 8 15 28 32 34 34 34 34 32 35 35 34 34 33 28 27
45 45 45 46 46 46 46 46 46 46 46 45 45 44 43 42 38 31 34 40 36 25 20 7 10 12 18 20 19 17 20 24 22 18 10 16 14 19 16 23 24 30 32 32 32 35 33 36 31 28 23 24 26 26
45 45 45 45 45 45 45 45 45 45 45 45 44 42 32 29 24 30 40 38 35 25 13 10 7 5 21 15 17 15 20 14 14 19 18 20 21 16 18 21 23 28 29 30 32 23 21 23 30 25 23 20 24 26
44 45 45 45 44 44 44 45 45 45 45 44 32 20 14 23 40 38 27 23 24 18 19 8 10 14 21 15 17 19 22 19 15 17 18 19 18 26 27 22 26 29 28 23 22 29 28 18 20 25 26 24 24 18
44 44 44 44 44 44 43 43 44 42 38 21 11 8 21 36 25 10 5 6 4 3 3 17 15 14 25 16 18 22 15 7 13 11 14 5 3 23 28 28 31 30 28 30 30 32 28 30 29 19 14 7 9 7
43 44 44 43 44 44 43 43 42 29 18 22 22 21 16 12 6 2 -6 1 -0 3 7 9 12 16 14 21 19 20 14 8 2 3 4 -2 20 8 4 5 9 8 7 11 22 27 14 7 5 9 6 2 1 1
43 44 44 43 43 44 43 42 42 39 35 19 11 5 7 4 -1 -4 -8 -1 -1 2 5 8 9 12 11 18 19 19 13 8 2 -2 3 14 9 5 2 -2 3 3 3 8 7 6 6 2 1 1 2 -4 -3 2
43 43 44 43 43 43 42 42 40 35 16 9 4 2 0 -6 -6 -4 -1 1 9 6 6 7 7 11 15 16 19 13 12 9 -1 -2 3 5 6 6 4 0 -4 1 3 6 2 -0 2 2 1 -0 0 -3 3 2
43 43 43 42 42 43 42 41 37 24 13 9 4 1 -5 -0 -5 2 2 5 9 9 13 12 16 19 16 16 12 8 8 6 9 10 11 11 4 1 2 -1 -2 0 0 -4 -3 -2 0 1 3 2 0 1 1 2
43 41 33 40 42 42 41 36 25 18 12 11 3 2 -9 -3 0 -0 -0 4 10 14 17 19 14 12 11 12 8 10 7 9 10 10 12 9 7 3 -1 -2 -1 -2 -4 -4 -2 -1 1 2 2 2 2 2 1 1
42 29 41 42 42 41 39 25 20 10 10 4 6 -10 -3 -5 8 4 2 9 20 14 13 15 14 15 19 15 12 9 5 7 7 10 11 8 5 3 1 -2 -0 -1 -0 2 4 4 3 -2 0 2 -0 1 1 2
26 31 41 38 37 36 23 21 18 6 7 4 6 1 -6 -2 1 4 8 14 14 14 16 17 17 12 12 9 8 7 8 8 9 9 10 7 6 4 1 -0 2 3 2 2 3 3 2 2 3 2 2 2 1 1
29 31 39 40 35 27 20 20 19 11 11 2 -1 -1 -3 -0 5 11 10 11 13 17 18 17 15 9 8 8 5 5 5 5 4 6 9 8 5 5 6 5 5 4 2 1 2 1 1 2 2 2 2 1 -1 -1
42 42 42 40 34 25 21 17 13 11 7 8 -2 1 0 4 6 4 6 12 12 15 14 10 8 7 6 7 7 6 6 7 4 5 7 7 7 9 8 8 6 5 5 4 4 4 3 1 1 1 -0 -1 -2 -4
32 30 38 33 31 26 22 13 6 11 7 8 0 3 6 2 4 6 8 9 8 2 10 7 6 6 7 7 8 6 6 5 4 4 5 7 9 9 7 7 7 5 3 1 0 -1 -1 -2 -1 -1 -2 -3 -2 -1
19 36 26 31 24 24 20 17 14 10 8 4 7 0 3 2 0 3 7 4 1 2 2 2 2 2 3 4 5 7 6 7 7 8 8 8 5 5 4 4 4 1 1 1 1 -1 -1 -1 -1 -2 -3 -3 -2 -3
29 28 23 26 23 18 18 16 14 7 10 3 5 3 2 -0 -0 5 5 -4 -5 -2 -1 0 2 3 3 6 8 7 7 7 5 5 4 4 4 4 4 3 0 1 0 0 2 1 0 1 0 -1 -1 -2 -4 -6
27 17 16 20 21 16 16 12 11 8 6 4 3 -2 0 -2 -1 3 2 -11 -9 -3 -1 -0 1 2 5 6 5 4 5 7 4 4 3 3 2 2 2 1 2 2 2 2 2 0 -0 -1 -2 -3 -5 -6 -9 -11
12 11 12 13 14 14 12 11 9 10 2 -3 -0 -2 -1 -3 -4 -8 -2 -9 -13 -10 -5 -3 -1 1 -2 -1 1 3 5 3 1 -0 0 2 1 2 1 3 3 4 5 1 -1 -3 -5 -5 -6 -8 -10 -11 -15 -19
7 7 6 8 8 10 11 11 12 7 5 -0 -3 -6 -6 -8 -6 -5 -11 -14 -14 -13 -11 -12 -7 -5 -1 2 -1 0 -0 1 1 -3 -2 -1 1 4 3 2 0 -0 3 2 -2 -5 -8 -9 -11 -13 -15 -18 -18 -18
5 3 5 7 6 7 7 8 8 9 5 -3 -9 -8 -8 -6 -9 -11 -11 -13 -12 -12 -9 -7 -8 -8 -4 -0 0 1 0 -0 -1 -2 -1 -1 -1 -1 3 2 -2 -3 -2 -4 -6 -7 -10 -12 -14 -16 -19 -24 -29 -26
1 2 3 3 3 4 3 4 4 5 -1 -7 -11 -8 -6 -8 -11 -12 -14 -12 -13 -11 -9 -8 -8 -6 -3 0 1 1 1 1 1 1 1 -1 -3 -4 -4 -2 -2 -1 -6 -7 -8 -9 -11 -12 -15 -18 -19 -22 -27 -28
2 2 2 1 1 -0 -2 -1 -1 -3 -5 -14 -13 -16 -17 -17 -19 -19 -14 -13 -9 -11 -9 -8 -5 -3 0 3 3 4 4 4 3 3 0 -2 -5 -10 -12 -11 -6 -5 -5 -5 -2 -9 -15 -14 -17 -19 -22 -20 -26 -28
1 1 2 2 -3 -9 -6 -5 -8 -8 -5 -13 -16 -16 -16 -17 -13 -12 -13 -13 -11 -10 -8 -7 -6 -2 1 3 2 2 -0 -1 1 6 -2 -7 -13 -19 -22 -16 -11 -11 -3 -3 -4 -6 -3 -14 -13 -20 -18 -19 -19 -18
0 1 2 4 1 -0 -3 -2 -3 -5 -9 -14 -16 -16 -17 -18 -14 -11 -10 -10 -10 -9 -6 -5 -2 -1 2 3 4 4 2 -6 -13 -10 -8 -11 -17 -16 -15 -15 -15 -11 -9 -10 -12 -13 -14 -17 -19 -19 -19 -20 -21 -20
1 2 4 3 1 2 2 0 -3 -8 -9 -12 -13 -16 -15 -14 -15 -13 -8 -10 -9 -8 -4 -2 -3 -3 -2 -3 -6 -8 -10 -17 -11 -10 -11 -11 -16 -17 -14 -13 -13 -10 -10 -12 -14 -15 -16 -17 -19 -20 -21 -23 -25 -26
2 5 6 5 1 1 3 3 1 1 -1 -6 -8 -9 -11 -11 -9 -9 -6 -6 -7 -6 -4 -5 -6 -6 -7 -8 -12 -16 -14 -15 -10 -2 -5 -6 -8 -9 -13 -14 -12 -11 -12 -13 -15 -15 -16 -18 -20 -24 -24 -27 -30 -29
MSLP
1020.29 1020.00 1019.60 1019.21 1018.85 1018.36 1017.92 1017.49 1017.06 1016.59 1015.92 1015.42 1015.04 1014.66 1014.46 1014.35 1014.38 1014.47 1014.29 1014.99 1015.54 1015.36 1014.99 1015.56 1015.20 1015.02 1015.57 1015.89 1017.16 1017.21 1017.21 1016.65 1016.64 1016.56 1016.14 1015.49 1013.90 1012.99 1012.14 1010.65 1010.03 1008.82 1008.71 1008.75 1008.22 1007.52 1005.99 1003.87 1004.14 1003.71 1002.54 1002.06 1001.96 1001.76
1019.67 1019.28 1018.92 1018.58 1018.17 1017.71 1017.19 1016.33 1015.61 1014.91 1014.24 1013.65 1013.14 1012.86 1012.65 1012.49 1012.64 1012.65 1012.77 1013.68 1014.27 1014.86 1013.78 1013.43 1013.20 1013.29 1013.58 1014.39 1015.34 1016.39 1016.16 1016.13 1015.98 1016.13 1016.32 1015.99 1015.39 1014.49 1013.02 1011.10 1009.78 1009.27 1008.26 1007.40 1006.42 1004.80 1003.88 1003.58 1002.99 1002.54 1002.30 1002.34 1002.10 1001.94
1019.05 1018.63 1018.29 1017.98 1017.39 1016.69 1015.99 1015.23 1014.33 1013.45 1012.45 1011.51 1010.83 1010.42 1010.33 1010.45 1010.73 1011.32 1011.84 1012.96 1013.74 1013.49 1013.78 1013.66 1012.81 1012.72 1012.76 1013.15 1013.57 1014.92 1014.67 1014.98 1015.40 1015.48 1016.27 1016.08 1015.37 1014.05 1013.14 1011.54 1010.40 1009.52 1008.87 1007.72 1006.18 1004.37 1004.02 1003.43 1003.04 1002.77 1002.56 1002.44 1002.26 1002.06
1018.38 1018.07 1017.63 1017.21 1016.53 1015.85 1015.10 1014.17 1013.08 1011.87 1010.45 1008.98 1008.01 1007.67 1008.03 1008.75 1009.31 1009.96 1011.03 1012.00 1012.72 1013.09 1013.22 1012.56 1012.11 1012.02 1011.51 1012.21 1012.90 1012.94 1013.34 1014.16 1014.75 1015.22 1015.97 1015.88 1015.54 1014.09 1013.13 1012.13 1011.32 1010.61 1009.90 1008.85 1007.46 1005.44 1004.07 1003.31 1003.32 1003.63 1003.01 1002.69 1002.54 1002.50
1017.73 1017.41 1016.92 1016.47 1015.82 1015.08 1014.25 1013.35 1012.08 1010.78 1009.28 1006.49 1003.81 1004.55 1006.50 1007.59 1008.42 1009.32 1010.33 1011.12 1011.53 1012.62 1012.56 1012.49 1012.09 1011.45 1011.06 1011.63 1012.26 1012.44 1013.04 1013.76 1014.72 1015.74 1015.68 1015.53 1014.50 1013.90 1012.60 1011.83 1010.01 1009.89 1009.14 1008.46 1007.08 1006.01 1005.86 1004.51 1003.96 1003.87 1003.41 1002.73 1002.44 1002.83
1017.10 1016.68 1016.30 1015.74 1015.03 1014.41 1013.77 1012.79 1011.74 1010.53 1009.23 1006.84 1005.49 1005.75 1006.53 1007.46 1008.44 1009.83 1010.91 1010.95 1010.93 1011.29 1012.17 1012.66 1011.96 1011.69 1011.32 1011.43 1011.70 1012.28 1012.51 1013.28 1014.04 1014.39 1014.44 1014.11 1013.25 1013.19 1012.59 1010.45 1009.26 1008.64 1007.84 1007.43 1007.07 1006.21 1006.18 1005.44 1004.70 1003.95 1003.43 1003.10 1002.74 1002.88
1016.40 1016.03 1015.67 1014.99 1014.44 1014.04 1013.32 1012.67 1011.79 1010.84 1009.79 1008.52 1007.38 1007.50 1007.88 1008.57 1009.46 1010.50 1010.66 1010.42 1010.38 1011.20 1011.98 1013.15 1012.81 1012.07 1011.69 1011.83 1012.33 1012.58 1012.71 1012.95 1013.23 1013.54 1013.48 1013.17 1012.67 1012.18 1011.66 1009.69 1008.79 1008.32 1007.64 1006.90 1006.46 1006.41 1005.45 1005.00 1004.61 1004.45 1003.95 1003.57 1003.81 1003.62
1015.73 1015.38 1014.99 1014.41 1014.08 1013.77 1013.23 1012.73 1012.10 1011.34 1010.68 1010.16 1009.54 1009.16 1009.36 1009.66 1010.20 1010.73 1010.74 1010.47 1010.79 1011.34 1012.12 1013.27 1013.16 1013.11 1012.12 1012.34 1012.35 1012.09 1012.52 1012.72 1012.51 1012.61 1012.54 1012.24 1011.88 1011.68 1010.48 1008.17 1008.09 1007.70 1007.13 1006.82 1006.09 1005.91 1005.73 1004.92 1004.67 1004.56 1004.59 1004.46 1004.66 1004.83
1014.98 1014.77 1014.30 1013.91 1013.65 1013.51 1013.28 1012.95 1012.56 1011.99 1011.41 1011.05 1010.69 1010.30 1010.53 1010.67 1011.20 1011.34 1010.92 1010.95 1011.04 1012.13 1012.76 1013.52 1013.79 1013.24 1012.43 1012.03 1011.80 1012.18 1011.93 1012.35 1011.78 1011.84 1011.31 1011.29 1010.69 1009.55 1008.20 1007.88 1007.52 1006.98 1006.50 1005.84 1005.74 1005.76 1005.69 1005.88 1005.12 1005.11 1004.94 1005.01 1005.58 1005.77
1014.33 1014.11 1013.76 1013.34 1013.22 1013.20 1013.04 1012.76 1012.39 1011.89 1011.41 1010.92 1011.03 1011.29 1012.24 1012.36 1011.71 1011.47 1011.51 1012.11 1012.20 1012.51 1013.09 1013.68 1013.34 1012.98 1012.24 1011.88 1011.64 1011.75 1011.26 1011.08 1010.85 1010.26 1010.14 1010.29 1009.54 1007.84 1007.21 1007.11 1006.74 1006.12 1005.85 1006.01 1006.60 1005.82 1005.75 1005.91 1005.90 1005.91 1005.62 1005.62 1005.98 1006.67
1013.76 1013.59 1013.27 1012.97 1012.85 1012.84 1012.80 1012.64 1012.21 1011.74 1011.57 1012.03 1012.74 1013.25 1012.72 1011.93 1012.26 1012.92 1013.82 1014.31 1014.53 1014.60 1014.07 1013.46 1013.05 1012.59 1011.56 1011.54 1011.34 1010.84 1010.35 1010.27 1010.36 1009.69 1009.76 1009.58 1008.81 1007.24 1006.63 1006.74 1006.37 1006.62 1006.70 1006.35 1006.21 1005.71 1005.90 1006.01 1006.48 1006.84 1007.23 1007.64 1007.93 1008.29
1013.25 1013.06 1012.93 1012.61 1012.45 1012.51 1012.63 1012.61 1012.40 1012.34 1012.76 1012.74 1012.85 1012.97 1013.14 1013.31 1014.52 1015.54 1016.37 1016.38 1016.00 1015.22 1014.00 1013.62 1012.50 1011.90 1011.31 1010.67 1010.50 1009.77 1009.72 1009.68 1009.41 1009.21 1009.77 1009.37 1007.50 1008.51 1008.64 1008.72 1008.57 1008.38 1007.99 1007.12 1006.56 1006.05 1006.38 1006.97 1007.45 1007.94 1008.62 1009.27 1009.76 1009.69
1012.75 1012.62 1012.41 1012.32 1012.21 1012.18 1012.40 1012.43 1012.36 1012.34 1012.49 1013.20 1013.50 1014.54 1015.24 1016.05 1016.82 1017.75 1017.76 1017.09 1016.34 1014.99 1013.95 1013.02 1012.55 1011.81 1011.23 1010.79 1009.94 1009.14 1009.04 1009.25 1009.18 1009.16 1009.39 1008.58 1009.26 1009.79 1010.23 1010.58 1009.99 1009.47 1008.61 1007.92 1007.41 1007.10 1007.28 1008.12 1008.74 1009.40 1010.01 1010.45 1010.25 1010.25
1012.18 1012.08 1011.97 1011.90 1011.84 1011.82 1012.09 1012.25 1012.28 1012.36 1012.92 1014.36 1015.70 1016.81 1018.30 1018.11 1018.17 1017.63 1017.02 1015.60 1014.33 1014.12 1013.53 1012.96 1012.23 1011.46 1010.68 1010.24 1008.81 1008.54 1008.31 1008.93 1009.32 1009.85 1008.99 1009.19 1010.24 1010.83 1011.02 1010.95 1011.03 1010.59 1009.57 1009.08 1008.73 1008.69 1008.76 1009.31 1010.18 1010.45 1010.46 1010.52 1010.67 1010.92
1011.63 1011.53 1011.47 1011.39 1011.48 1011.51 1011.83 1012.01 1012.21 1012.63 1013.77 1015.30 1016.61 1017.97 1018.49 1017.27 1017.04 1015.94 1015.14 1014.75 1013.60 1012.96 1012.42 1012.11 1011.29 1010.44 1009.76 1009.33 1008.32 1008.37 1008.66 1008.60 1008.37 1008.67 1009.07 1009.91 1010.82 1011.43 1011.59 1011.27 1011.20 1010.86 1010.26 1009.86 1009.69 1009.79 1010.12 1010.43 1010.77 1011.26 1011.37 1011.28 1011.41 1011.62
1011.20 1011.20 1011.06 1011.14 1011.20 1011.38 1011.66 1012.03 1012.49 1013.33 1014.54 1015.55 1016.53 1017.28 1018.12 1018.23 1017.16 1016.05 1015.33 1014.34 1012.76 1012.35 1011.67 1011.24 1010.53 1009.74 1009.07 1008.18 1008.32 1008.14 1008.35 1008.60 1008.96 1009.66 1010.02 1010.35 1011.06 1011.53 1011.67 1011.39 1011.46 1011.40 1011.19 1010.78 1010.64 1010.78 1010.77 1011.11 1011.54 1012.01 1012.05 1012.18 1012.46 1012.54
1010.92 1011.39 1011.01 1011.02 1011.08 1011.37 1011.71 1012.30 1013.12 1014.16 1015.36 1016.02 1016.31 1016.36 1016.78 1017.16 1016.48 1015.37 1014.10 1013.19 1012.38 1012.13 1011.57 1010.77 1009.74 1008.28 1007.83 1007.88 1008.34 1008.99 1009.65 1010.49 1011.00 1010.68 1010.85 1011.21 1011.55 1011.67 1011.72 1011.73 1011.72 1011.77 1011.59 1011.14 1010.90 1011.26 1011.80 1012.21 1012.38 1012.46 1012.62 1013.40 1013.52 1013.67
1011.06 1011.06 1010.83 1011.25 1011.13 1011.53 1012.12 1012.60 1013.48 1014.78 1015.50 1015.59 1016.50 1016.25 1016.17 1015.90 1015.16 1014.20 1013.35 1012.52 1012.24 1011.76 1011.08 1010.49 1009.85 1009.29 1009.18 1009.74 1010.34 1011.34 1011.30 1011.48 1011.46 1011.38 1011.21 1011.52 1011.58 1011.68 1011.97 1011.98 1011.87 1011.84 1011.84 1012.05 1012.27 1012.48 1012.69 1012.95 1013.01 1013.43 1013.75 1014.20 1014.38 1014.74
1010.51 1010.53 1010.34 1010.49 1010.88 1011.60 1012.34 1013.03 1013.47 1014.69 1014.87 1015.03 1015.49 1015.52 1015.72 1015.16 1014.13 1013.23 1012.74 1012.35 1011.87 1011.31 1011.18 1010.70 1010.70 1011.06 1011.32 1011.88 1012.46 1012.70 1012.82 1012.61 1012.02 1012.08 1011.83 1011.91 1011.94 1011.97 1012.10 1012.26 1012.50 1012.74 1012.86 1012.86 1013.05 1013.63 1013.85 1013.73 1013.92 1014.30 1014.65 1015.07 1015.48 1016.07
1009.72 1009.69 1009.72 1009.88 1010.50 1011.35 1012.19 1013.07 1013.56 1014.13 1014.75 1014.59 1015.30 1015.54 1015.39 1014.75 1013.69 1013.00 1012.48 1012.14 1011.97 1011.62 1011.76 1012.07 1012.68 1012.86 1013.25 1013.61 1013.91 1013.90 1013.59 1013.51 1013.09 1012.51 1012.44 1012.41 1012.31 1012.34 1012.42 1012.55 1012.85 1013.21 1013.50 1013.85 1014.03 1014.12 1014.28 1014.65 1015.16 1015.57 1015.95 1016.29 1016.55 1017.21
1009.75 1009.69 1009.51 1009.68 1010.34 1011.02 1011.74 1012.75 1013.44 1013.53 1013.74 1014.83 1014.98 1015.06 1015.20 1014.28 1013.84 1013.54 1013.26 1012.79 1012.88 1013.40 1013.36 1014.30 1014.57 1014.48 1014.64 1014.36 1014.20 1014.07 1013.87 1013.85 1013.72 1013.48 1013.13 1012.94 1012.86 1012.86 1013.06 1013.29 1013.54 1013.84 1014.04 1014.39 1014.68 1015.20 1015.53 1016.06 1016.59 1016.87 1017.15 1017.53 1017.88 1018.22
1009.78 1009.55 1009.68 1009.59 1010.19 1010.65 1011.15 1011.50 1012.06 1012.75 1013.45 1014.26 1014.94 1014.92 1015.35 1015.25 1014.63 1014.39 1014.14 1014.21 1014.87 1015.46 1015.57 1015.75 1016.05 1015.48 1015.07 1014.89 1014.63 1014.23 1014.12 1013.85 1013.56 1013.48 1013.39 1013.39 1013.61 1013.67 1013.79 1013.99 1014.24 1014.73 1015.13 1015.50 1015.80 1016.20 1016.67 1017.11 1017.48 1017.85 1018.13 1018.67 1019.07 1019.48
1009.68 1009.74 1009.77 1009.33 1009.58 1010.21 1010.76 1010.95 1011.98 1012.75 1013.56 1014.17 1014.81 1015.58 1015.99 1015.57 1014.94 1014.52 1015.39 1016.41 1016.85 1017.08 1016.83 1016.73 1016.60 1016.15 1015.81 1015.17 1014.80 1014.58 1014.45 1014.28 1014.32 1014.36 1014.49 1014.49 1014.51 1014.64 1014.82 1015.10 1015.39 1015.59 1015.98 1016.60 1016.77 1017.04 1017.46 1017.97 1018.43 1018.77 1019.31 1019.85 1020.35 1020.91
1010.02 1010.25 1010.08 1009.58 1009.52 1010.09 1010.76 1011.27 1011.86 1012.88 1013.54 1014.48 1015.65 1016.70 1016.56 1015.71 1015.28 1015.93 1016.91 1017.79 1018.37 1018.19 1017.85 1017.56 1017.04 1016.22 1015.77 1015.62 1015.79 1015.81 1015.35 1015.17 1015.25 1015.38 1015.52 1015.51 1015.58 1015.81 1015.91 1016.11 1016.39 1016.63 1016.89 1017.24 1017.60 1017.99 1018.54 1019.11 1019.66 1020.16 1020.76 1021.25 1021.91 1022.38
1011.03 1011.39 1011.42 1010.65 1010.52 1010.64 1010.97 1011.43 1012.05 1013.01 1014.05 1014.94 1016.28 1016.89 1016.71 1016.32 1016.97 1017.79 1018.56 1019.29 1019.50 1019.61 1019.18 1018.69 1018.11 1017.58 1017.13 1016.74 1016.53 1016.39 1016.22 1016.11 1016.22 1016.39 1016.67 1016.64 1016.76 1016.84 1016.94 1017.09 1017.30 1017.58 1017.81 1018.02 1018.64 1019.15 1019.95 1020.51 1021.10 1021.66 1022.28 1022.78 1023.31 1023.94
1011.70 1012.44 1012.63 1012.10 1011.92 1011.73 1011.65 1011.90 1012.32 1013.17 1014.22 1015.82 1016.75 1016.94 1017.42 1018.14 1019.16 1019.58 1020.09 1020.50 1020.77 1020.64 1020.36 1019.89 1019.46 1018.69 1017.96 1017.40 1017.10 1016.95 1017.09 1016.99 1016.95 1017.29 1017.81 1017.63 1017.41 1017.32 1017.44 1017.69 1018.22 1018.93 1018.98 1019.10 1019.44 1020.26 1021.21 1022.00 1022.62 1023.21 1023.94 1024.45 1024.76 1025.00
1012.78 1013.51 1013.66 1013.66 1013.43 1013.20 1013.14 1013.16 1013.42 1014.01 1015.33 1016.76 1017.63 1018.15 1018.61 1019.63 1020.26 1021.27 1021.02 1021.37 1021.27 1020.91 1020.61 1020.19 1019.80 1019.29 1018.67 1017.97 1017.70 1017.68 1017.63 1017.43 1017.63 1018.34 1018.55 1018.47 1018.43 1018.32 1018.26 1018.78 1019.46 1020.10 1020.16 1020.31 1020.77 1021.47 1022.20 1023.16 1023.90 1024.56 1025.21 1025.60 1025.94 1026.21
1014.51 1014.49 1014.51 1014.64 1014.43 1014.42 1014.36 1014.51 1014.85 1015.52 1016.81 1017.96 1018.62 1019.36 1020.01 1020.61 1021.51 1021.77 1021.49 1021.35 1020.95 1020.55 1020.17 1019.63 1019.32 1019.10 1018.82 1018.37 1018.32 1018.38 1018.44 1018.49 1018.56 1018.67 1018.80 1019.28 1019.77 1020.00 1020.16 1020.27 1020.53 1020.83 1021.20 1021.65 1022.10 1022.62 1023.19 1023.87 1024.59 1025.19 1025.76 1026.45 1026.88 1026.80
1015.34 1015.28 1015.18 1015.11 1015.23 1015.50 1015.82 1016.15 1016.58 1017.44 1018.30 1019.01 1019.92 1020.66 1021.57 1021.77 1021.99 1022.04 1021.47 1020.96 1020.65 1020.43 1020.21 1019.85 1019.65 1019.10 1018.97 1018.83 1018.86 1018.90 1018.92 1018.95 1019.04 1019.11 1019.55 1020.51 1021.30 1022.21 1021.95 1021.76 1021.82 1022.03 1022.36 1022.77 1023.38 1023.72 1024.17 1024.73 1025.36 1025.85 1026.32 1026.64 1027.16 1027.01
1016.02 1015.75 1015.30 1015.22 1015.69 1016.35 1016.92 1017.24 1017.89 1018.47 1019.07 1019.84 1020.67 1021.34 1021.92 1021.84 1021.51 1021.27 1021.11 1021.00 1020.83 1020.67 1020.28 1019.88 1019.59 1019.39 1019.24 1019.24 1019.29 1019.37 1019.44 1019.36 1019.16 1019.28 1020.02 1021.15 1022.33 1022.99 1022.86 1022.77 1022.82 1022.93 1023.20 1023.51 1024.06 1024.71 1025.19 1025.60 1026.14 1026.51 1027.06 1027.50 1027.56 1027.64
1016.23 1015.75 1015.34 1015.14 1015.79 1016.43 1016.96 1017.56 1018.03 1018.61 1019.18 1019.78 1020.44 1021.35 1021.98 1021.78 1021.23 1020.94 1021.02 1020.87 1020.55 1020.14 1020.05 1019.95 1019.75 1019.57 1019.48 1019.56 1019.74 1019.95 1020.16 1020.40 1020.31 1019.98 1020.19 1021.47 1022.48 1023.00 1023.34 1023.52 1023.59 1023.76 1024.10 1024.51 1025.07 1025.67 1026.27 1026.82 1027.21 1027.59 1027.94 1028.28 1028.48 1028.48
1016.06 1015.41 1015.06 1015.21 1015.98 1016.60 1017.08 1017.33 1017.78 1018.23 1018.72 1019.38 1020.14 1020.67 1021.35 1021.42 1021.40 1021.24 1020.97 1020.83 1020.75 1020.62 1020.48 1020.33 1020.37 1020.47 1020.51 1020.58 1020.84 1021.06 1021.01 1021.30 1021.27 1021.34 1021.69 1022.33 1023.03 1023.54 1024.06 1024.29 1024.46 1024.67 1025.07 1025.59 1026.08 1026.55 1026.93 1027.39 1028.00 1028.47 1028.94 1029.30 1029.41 1029.42
1015.76 1015.20 1014.85 1015.12 1015.81 1016.13 1016.16 1016.33 1016.64 1017.14 1017.69 1018.47 1019.21 1019.60 1020.28 1020.90 1021.08 1021.06 1020.90 1020.85 1020.80 1020.78 1020.87 1021.08 1021.21 1021.29 1021.33 1021.51 1021.95 1022.15 1022.12 1021.97 1021.95 1022.13 1022.60 1022.98 1023.41 1023.91 1024.53 1024.91 1025.07 1025.46 1025.91 1026.49 1026.94 1027.27 1027.79 1028.35 1028.94 1029.41 1029.79 1030.00 1030.11 1030.12
Wind_Speed
18 19 21 22 21 23 25 27 29 30 31 32 32 32 31 30 30 20 6 8 9 7 8 9 10 7 1 4 5 6 4 5 3 2 4 3 3 2 5 6 5 8 8 5 2 3 10 7 3 7 4 2 2 3
18 20 21 21 23 25 27 30 31 31 32 33 34 33 33 30 27 20 9 5 8 8 5 9 15 20 11 10 7 3 7 6 5 2 2 3 7 6 4 5 1 4 2 4 9 8 1 5 2 4 2 1 2 2
19 20 20 23 25 27 29 31 33 34 34 35 36 35 32 31 28 21 7 5 3 2 1 2 8 7 13 9 8 6 4 4 2 4 3 3 7 0 3 4 5 11 10 5 3 4 5 5 5 5 4 2 2 3
19 19 21 23 25 26 29 32 33 34 34 35 33 31 28 24 23 19 4 6 2 2 4 6 2 5 9 12 11 8 4 0 4 3 3 3 3 5 5 6 12 6 5 7 10 13 7 7 4 10 8 7 6 5
17 20 21 23 23 26 27 30 29 30 33 34 29 27 18 16 15 6 3 6 5 4 3 3 1 6 8 12 13 10 9 6 2 1 2 4 4 3 6 3 10 4 9 7 5 5 2 7 16 15 10 11 9 7
17 19 21 20 22 21 22 24 25 24 26 27 23 5 4 7 8 4 3 2 7 4 1 1 4 3 1 5 10 11 11 6 5 3 4 4 7 3 4 10 6 8 11 10 6 7 13 15 16 10 8 9 7 8
17 18 17 19 16 16 18 18 20 20 20 21 22 18 16 17 5 4 5 3 7 4 3 1 5 4 2 3 1 1 2 4 4 3 5 5 5 7 4 17 13 13 16 13 12 12 18 10 8 7 5 6 4 2
17 14 17 16 12 12 14 16 16 16 17 18 20 20 17 15 9 3 3 4 5 3 4 2 5 5 2 3 3 2 3 4 4 4 2 5 2 5 10 16 5 11 16 15 18 14 16 19 10 7 2 3 2 1
15 13 15 13 8 6 10 13 15 14 13 11 7 7 6 5 3 1 3 6 3 4 2 3 3 5 1 2 2 3 3 3 2 6 8 4 6 9 10 11 11 18 15 18 11 6 5 7 12 8 5 3 2 5
11 13 14 12 5 3 8 14 15 15 17 13 5 5 4 2 7 6 6 2 1 3 1 3 0 3 3 1 3 2 4 4 5 8 4 8 11 19 15 10 10 15 11 3 3 17 10 6 6 6 10 3 3 3
9 9 12 9 5 2 6 11 14 13 8 5 3 1 4 4 4 4 2 4 3 5 2 3 4 2 2 2 3 4 3 3 3 7 8 4 5 15 19 19 15 13 12 15 12 17 7 9 8 4 3 4 5 4
9 10 9 8 3 1 4 7 11 4 3 4 3 1 4 5 4 6 2 4 3 6 4 3 4 4 4 1 4 3 4 2 6 2 4 3 12 8 8 6 9 7 7 10 10 11 4 5 3 6 6 4 2 2
9 11 9 7 6 5 1 4 6 3 0 4 5 6 5 4 6 5 3 6 2 3 4 1 3 3 4 2 4 4 5 6 2 3 6 8 3 4 5 5 9 8 7 7 4 2 8 6 5 4 6 2 3 5
9 10 10 8 10 8 3 2 6 4 5 4 4 5 4 5 5 6 6 6 6 3 3 2 3 4 4 4 4 4 5 2 3 1 7 2 3 7 6 5 3 8 7 5 3 4 8 9 7 5 6 3 6 8
9 10 11 10 7 8 3 1 4 3 4 1 5 4 5 5 3 5 4 2 4 2 1 3 3 3 2 5 3 1 3 5 4 2 2 3 2 4 6 5 6 6 6 4 3 4 7 7 9 9 6 7 8 9
9 9 3 6 8 10 4 4 3 3 3 2 1 2 3 4 6 4 1 4 3 1 2 2 4 3 7 4 1 7 4 5 1 4 4 6 8 6 5 4 5 4 2 3 5 4 6 7 9 9 9 10 10 10
6 3 2 1 4 5 3 3 3 4 3 1 5 1 4 2 5 4 3 4 1 2 3 2 5 6 3 3 1 5 5 3 4 4 4 4 5 6 4 3 4 3 3 5 9 9 9 4 5 10 13 9 10 10
3 5 7 5 1 4 2 2 4 3 4 4 1 4 3 3 2 4 4 1 2 2 1 3 3 3 3 4 2 3 4 5 4 5 3 4 4 4 3 3 5 6 7 8 7 7 6 7 10 9 9 8 9 9
5 5 10 8 7 3 3 1 3 4 7 2 2 1 2 4 4 4 2 2 3 2 3 2 3 2 2 3 3 3 3 4 6 5 4 4 4 4 3 5 6 6 7 7 8 7 7 9 8 7 7 6 8 6
13 13 8 2 7 2 2 2 2 3 3 4 2 3 3 4 3 2 3 1 0 1 1 1 1 1 2 2 2 3 4 3 4 4 1 2 3 3 4 4 5 6 6 7 7 8 8 9 8 8 7 7 8 8
5 4 5 1 3 2 3 2 2 4 3 1 3 1 4 3 3 2 2 2 4 2 1 3 1 2 4 4 3 3 3 1 1 2 2 1 3 3 4 5 6 5 6 6 7 8 9 7 6 6 8 8 8 8
3 4 1 4 3 4 2 3 4 3 2 3 1 1 2 3 3 3 2 4 2 2 2 1 1 3 4 3 5 4 4 3 4 2 3 3 2 3 4 5 5 6 6 5 6 7 7 7 7 7 8 9 9 8
4 1 2 3 4 4 3 2 3 1 1 3 3 3 4 3 3 2 3 0 1 1 2 2 3 4 4 4 4 6 4 5 4 5 5 4 5 5 5 6 4 6 7 6 5 7 8 10 9 9 9 9 8 9
4 1 2 3 4 4 3 2 2 2 2 2 3 2 4 4 3 3 2 2 2 3 4 6 4 4 2 3 4 5 6 3 4 5 4 4 5 6 5 6 6 5 5 6 7 8 8 8 10 8 8 9 8 8
3 2 1 3 2 3 4 4 4 3 4 3 3 3 3 3 2 2 1 4 3 2 4 5 4 3 2 2 2 3 6 3 3 5 5 4 4 5 6 6 7 6 4 7 8 9 8 8 8 8 8 8 9 8
3 2 1 2 1 0 1 4 5 3 3 2 3 3 2 3 1 5 3 2 2 2 2 3 3 4 4 4 3 3 4 3 2 4 4 4 3 3 5 6 5 5 5 5 8 11 10 8 9 10 9 8 7 7
3 2 2 1 1 0 1 1 1 1 3 4 3 0 3 1 5 3 3 1 0 3 2 3 2 1 3 4 2 3 4 5 6 5 3 5 6 6 5 4 6 3 5 7 8 10 12 9 9 8 7 4 4 4
2 3 2 2 2 2 2 1 2 3 2 1 3 3 6 5 4 4 4 3 4 3 4 3 3 2 2 1 2 2 4 4 6 6 6 8 9 8 8 7 8 13 8 8 8 7 8 8 8 7 7 5 2 2
2 1 0 3 2 2 1 0 1 2 1 3 4 1 2 4 3 2 4 3 3 1 3 3 3 1 2 3 3 3 1 2 3 4 7 5 3 4 5 3 6 7 7 10 13 10 10 8 7 7 5 6 3 2
2 1 0 2 2 1 3 2 2 1 1 3 4 2 3 3 3 2 1 3 3 2 2 2 2 1 1 1 0 2 3 3 3 2 4 5 4 3 2 3 5 4 6 9 10 10 11 7 6 5 5 5 4 5
2 1 1 1 3 2 2 2 2 2 2 1 1 4 4 3 4 2 1 2 2 2 3 3 3 4 3 3 1 1 1 4 5 6 10 8 5 5 4 4 3 5 7 8 8 7 7 5 4 6 7 8 7 6
1 2 0 3 2 3 3 2 3 2 1 2 1 2 3 3 2 3 3 3 3 3 3 2 2 3 4 3 3 3 5 3 5 7 9 8 6 4 5 5 4 6 8 8 6 5 7 7 6 6 6 7 6 6
2 2 1 3 4 4 3 2 1 2 1 1 1 4 3 4 3 3 1 2 2 1 2 3 3 3 5 6 4 3 4 4 8 11 11 10 10 9 5 4 5 7 8 7 5 6 8 9 7 6 6 5 4 3
Wind_Direction
302 305 303 306 305 308 306 308 304 294 288 286 283 280 278 272 267 269 257 212 213 246 249 202 206 183 126 157 168 248 30 331 11 189 224 292 224 301 285 221 239 193 158 188 144 135 266 160 92 178 216 354 322 314
303 300 306 309 308 311 302 299 303 298 295 292 287 284 280 274 270 272 244 185 194 235 253 201 205 219 193 182 160 251 196 179 213 116 59 338 307 285 281 280 245 239 259 203 182 210 241 204 262 231 135 236 285 108
298 303 310 305 308 308 314 308 306 303 296 289 282 275 270 267 265 256 239 160 184 216 255 229 213 201 213 200 174 157 274 160 250 166 188 234 268 260 197 243 316 346 15 318 354 275 257 251 256 246 227 224 207 145
298 306 305 309 314 319 313 314 313 309 304 295 282 274 263 257 258 247 154 160 155 194 194 257 211 210 214 203 193 198 210 226 116 119 172 200 204 202 270 281 296 272 333 322 293 289 279 264 263 345 253 225 205 213
302 302 309 314 321 318 320 324 325 327 326 321 302 246 253 239 239 223 130 173 179 191 210 245 271 237 174 187 206 212 225 217 138 53 194 227 250 244 264 267 262 212 249 250 281 353 332 290 323 320 256 236 214 200
298 306 314 320 316 324 329 335 343 346 359 20 37 94 185 179 107 78 19 261 183 158 264 175 293 303 228 178 196 209 214 209 190 178 200 214 226 180 265 256 226 235 253 244 251 289 299 292 292 299 273 252 223 196
299 308 316 320 331 335 338 350 359 10 21 42 60 68 80 101 76 112 184 227 185 133 140 277 299 294 185 101 42 64 80 209 194 219 210 225 244 215 225 260 255 274 271 276 286 303 293 276 265 316 344 357 350 78
299 314 308 325 329 351 359 6 13 27 42 54 66 77 85 85 88 40 333 57 121 87 72 129 275 9 148 168 206 178 161 189 205 201 339 201 334 189 243 254 229 246 254 267 265 263 254 275 291 280 309 337 329 2
302 307 316 314 317 349 1 0 357 9 21 30 41 56 32 37 45 315 51 60 57 117 178 130 150 258 3 271 177 1 157 190 205 213 224 158 242 214 225 218 223 243 244 258 270 271 284 257 281 286 268 294 262 294
304 308 313 305 273 320 332 328 320 313 315 327 20 39 12 312 323 335 358 48 15 332 118 190 211 261 140 285 270 222 202 206 220 225 116 206 237 241 240 223 240 251 244 221 264 280 290 269 261 276 241 257 205 125
290 304 335 313 264 296 342 348 346 338 16 37 40 187 239 295 49 27 357 87 317 341 311 232 177 214 252 166 233 229 213 230 228 250 174 219 254 233 232 241 250 278 295 273 250 261 231 258 271 243 109 50 75 77
282 295 314 336 265 195 336 349 0 38 170 197 186 40 17 40 37 80 266 324 88 229 275 166 230 196 278 210 199 230 229 58 218 151 112 252 245 55 9 333 316 314 304 299 282 245 178 99 71 95 93 83 83 135
277 295 291 314 299 202 261 342 352 323 14 29 43 39 53 312 24 104 270 307 320 255 244 241 278 194 341 272 242 237 226 234 27 64 213 238 42 6 339 304 314 305 311 300 304 34 114 95 61 79 113 138 141 79
278 277 291 290 299 202 184 329 347 25 73 80 87 312 130 308 243 189 193 205 240 178 277 206 257 190 195 234 227 243 238 69 11 357 231 285 16 325 318 310 332 316 327 334 37 76 92 98 96 79 85 91 86 70
304 280 285 289 245 177 192 33 40 65 99 146 85 244 228 238 245 233 234 6 265 220 126 331 255 224 230 253 204 22 314 254 219 286 348 18 338 307 316 325 323 328 334 355 39 87 96 94 91 79 53 62 66 68
301 323 287 208 200 185 168 89 53 78 45 104 69 24 283 44 293 319 268 257 258 245 320 219 252 243 229 214 136 227 195 212 29 2 350 349 335 324 306 322 331 322 358 42 58 77 84 81 96 92 75 63 61 63
330 205 283 284 268 160 103 87 66 45 178 336 267 187 162 201 226 241 177 237 243 85 226 290 249 233 286 229 227 8 9 15 335 322 319 338 327 324 344 351 25 7 39 61 74 72 81 69 87 85 79 64 66 64
185 242 248 244 344 117 29 64 87 81 268 250 152 255 220 201 229 274 255 243 84 234 238 244 297 294 327 335 5 25 321 316 299 324 335 354 358 8 10 23 34 40 49 54 63 74 66 79 86 82 84 81 77 63
235 232 266 243 165 129 133 266 120 221 237 235 274 281 199 250 251 261 238 238 203 219 292 258 276 317 311 39 357 316 288 309 312 320 330 346 344 6 43 60 70 72 69 67 69 75 73 66 74 76 74 73 75 58
293 295 293 234 140 111 143 271 72 140 258 239 61 290 199 219 245 258 277 348 298 210 152 60 67 328 319 347 282 277 300 308 303 307 125 6 358 38 53 88 82 80 84 84 79 80 82 74 62 65 68 72 80 68
27 279 304 109 155 146 163 159 314 204 222 188 250 79 279 355 330 331 327 342 54 33 313 81 70 306 314 307 317 315 320 325 268 273 316 8 11 47 62 72 79 74 77 77 82 73 68 72 73 73 78 74 71 74
243 304 268 172 151 182 200 203 172 214 114 212 15 79 335 326 303 310 301 44 36 21 2 359 49 303 321 324 326 333 320 324 17 36 30 27 43 46 51 53 81 80 72 75 87 94 89 84 83 81 80 77 71 69
333 194 237 241 179 170 208 74 115 290 142 272 27 17 319 306 240 331 62 131 273 345 290 307 292 262 250 297 356 11 1 16 42 56 50 55 57 51 66 63 50 93 93 73 79 90 88 86 84 85 84 81 81 75
14 70 241 235 203 164 112 156 138 120 42 62 108 287 282 252 337 46 270 289 270 323 350 342 329 337 14 20 53 15 353 34 55 60 43 67 74 58 61 68 63 62 76 99 93 89 84 81 84 83 82 85 77 79
91 298 354 220 2 143 157 159 162 151 202 202 115 279 270 21 2 329 243 284 352 337 347 343 346 3 36 324 1 13 10 29 61 74 22 39 89 89 75 71 69 63 79 102 94 92 83 81 78 78 74 82 88 74
210 22 60 10 50 68 85 169 171 156 130 127 220 258 44 97 78 246 253 267 286 289 314 338 332 341 6 3 338 3 356 341 69 69 23 7 24 94 109 104 96 59 43 91 110 104 94 86 88 87 78 61 65 91
218 84 39 12 24 45 96 33 40 117 146 170 229 143 89 160 247 265 286 238 232 259 246 257 230 257 305 326 18 28 23 40 71 87 64 44 37 30 45 93 104 85 74 83 93 108 114 109 102 100 100 64 51 69
73 18 81 22 71 349 135 160 184 174 124 221 70 188 178 185 225 245 223 251 225 274 275 263 225 222 283 335 62 48 56 78 95 103 95 61 46 42 46 67 81 87 85 82 92 92 100 109 112 103 96 104 93 4
81 12 233 105 114 57 28 256 141 70 127 102 145 204 219 235 219 240 279 264 290 354 18 7 331 31 57 60 54 33 14 251 250 119 100 97 71 16 356 37 81 87 95 95 92 94 95 100 102 104 98 93 100 62
52 4 202 113 84 257 245 165 173 167 73 145 139 46 4 317 251 213 350 352 8 310 264 241 266 130 190 199 129 63 28 353 341 116 134 145 174 187 96 89 97 94 105 104 101 90 78 68 65 41 58 53 46 56
304 271 233 82 81 43 117 105 73 77 73 96 175 120 210 239 314 300 14 281 283 348 56 23 26 20 24 29 12 194 97 21 7 70 98 106 118 115 110 92 79 92 99 101 101 102 103 80 83 92 82 76 61 65
253 254 299 116 119 126 161 210 161 155 193 84 293 74 8 41 323 293 320 358 41 45 25 32 59 37 22 44 38 29 64 100 93 103 108 116 111 105 101 94 91 100 101 100 98 103 103 102 95 87 91 87 74 64
255 214 200 128 135 179 193 189 190 137 117 90 244 174 176 163 211 257 306 21 62 67 74 63 61 54 54 65 67 66 80 100 109 103 103 104 109 110 99 93 95 103 106 105 99 112 106 105 99 98 95 88 72 50